Skovde current weather conditions

sailwx.info

Wind from 240 at 11 knots

Air temperature 7.0° C
Visibility: greater than 5.4 NM
Dewpoint 4.0° C

Last reported at 2017-Jan-19 11:20 UTC.
Time now 2017-Jan-19 13:09 UTC

Location: N 58°27' E 013°58'.
View on Google Maps.

See reports from other nearby stations

  
Tides and Currents Weather Stations Pressure Air Temp Water Temp Dewpoint Dewpoint Depression Visibility Wind Speed Wind Dir Waves Ship Positions
date/time (UTC)wind fromknots sea level pressurealtimeterstation pressurevisibilityair tempwater tempwave heightnotes
2017-Jan-19 11:20 240 11 5.4 7.0
2017-Jan-19 10:50 250 13 5.4 7.0
2017-Jan-19 10:20 240 8 gusting 19 5.4 7.0
2017-Jan-19 09:50 240 8 5.4 6.0
2017-Jan-19 09:20 240 9 5.4 6.0
2017-Jan-19 08:50 240 8 5.4 6.0
2017-Jan-19 08:20 240 8 5.4 6.0
2017-Jan-19 07:50 240 8 5.4 6.0
2017-Jan-19 07:20 230 8 5.4 5.0
2017-Jan-19 06:50 240 7 5.4 5.0
2017-Jan-19 06:20 240 8 5.4 5.0
2017-Jan-19 05:50 240 6 5.4 5.0
2017-Jan-19 05:20 240 7 5.4 5.0
2017-Jan-19 04:50 220 5 5.4 5.0
2017-Jan-19 04:20 200 5 5.4 5.0
2017-Jan-19 03:50 220 8 5.4 5.0
2017-Jan-19 03:20 210 5 5.4 5.0
2017-Jan-19 02:50 200 6 5.4 5.0
2017-Jan-19 02:20 170 5 5.4 5.0
2017-Jan-19 01:50 220 6 5.4 5.0
2017-Jan-19 01:20 230 6 5.4 5.0
2017-Jan-19 00:50 5.4 5.0
2017-Jan-19 00:20 5.4 5.0
2017-Jan-18 23:50 5.4 5.0
2017-Jan-18 23:20 220 7 5.4 5.0
2017-Jan-18 22:50 220 7 5.4 5.0
2017-Jan-18 22:20 230 9 5.4 6.0
2017-Jan-18 21:50 240 9 5.4 6.0
2017-Jan-18 21:20 240 9 5.4 6.0
2017-Jan-18 20:50 240 7 5.4 6.0
2017-Jan-18 20:20 250 8 5.4 6.0
2017-Jan-18 19:50 230 6 5.4 6.0
2017-Jan-18 19:20 220 6 5.4 6.0
2017-Jan-18 18:50 240 8 gusting 19 5.4 6.0
2017-Jan-18 18:20 250 9 2.7 6.0 Mist.
2017-Jan-18 17:50 250 12 2.7 6.0 Mist.
2017-Jan-18 17:20 250 9 2.7 6.0 Mist.
2017-Jan-18 16:50 240 12 5.4 6.0
2017-Jan-18 16:20 240 9 1.8 6.0 Mist.
2017-Jan-18 15:50 230 12 2.5 6.0 Mist.
2017-Jan-18 15:20 240 11 2.5 6.0 Mist.
2017-Jan-18 14:50 240 8 2.6 6.0 Mist.
2017-Jan-18 14:20 240 9 gusting 20 2.7 6.0 Mist.
2017-Jan-18 13:50 240 9 2.7 6.0 Mist.
2017-Jan-18 13:20 230 9 2.6 6.0 Mist.
2017-Jan-18 12:50 230 7 3.2 6.0 Mist.
2017-Jan-18 12:20 230 8 3.8 6.0 Mist.
2017-Jan-18 11:50 220 7 4.3 6.0 Mist.
2017-Jan-18 11:20 220 7 4.9 5.0 Mist.
2017-Jan-18 10:50 220 6 5.4 5.0
2017-Jan-18 10:20 200 6 5.4 5.0
2017-Jan-18 09:50 210 7 5.4 5.0
2017-Jan-18 09:20 210 6 5.4 4.0
2017-Jan-18 08:50 160 4 5.4 4.0
2017-Jan-18 08:20 200 6 5.4 4.0
2017-Jan-18 07:50 170 5 5.4 4.0
2017-Jan-18 07:20 200 4 5.4 4.0
2017-Jan-18 06:50 180 4 5.4 4.0
2017-Jan-18 06:20 200 5 5.4 3.0
2017-Jan-18 05:50 200 5 4.9 4.0 Mist.
2017-Jan-18 05:20 220 5 2.7 3.0 Mist.
2017-Jan-18 04:50 230 6 3.2 4.0 Mist.
2017-Jan-18 04:20 210 4 3.8 3.0 Mist.
2017-Jan-18 03:50 5.4 3.0
2017-Jan-18 03:20 190 2 4.9 3.0 Mist.
2017-Jan-18 02:50 190 4 4.9 3.0 Mist.
2017-Jan-18 02:20 180 2 3.2 3.0 Mist.
2017-Jan-18 01:50 3.8 3.0 Mist.
2017-Jan-18 01:20 180 2 3.2 3.0 Mist.
2017-Jan-18 00:50 240 2 2.7 3.0 Mist.
2017-Jan-18 00:20 2.7 3.0 Mist.
2017-Jan-17 23:50 3.8 3.0 Mist.
2017-Jan-17 23:20 2.7 3.0 Mist.
2017-Jan-17 22:50 230 5 4.3 3.0 Mist.
2017-Jan-17 22:20 220 5 5.4 3.0 Light drizzle.
2017-Jan-17 21:50 210 6 4.3 3.0 Light drizzle.
2017-Jan-17 21:20 210 5 4.3 2.0
2017-Jan-17 20:50 180 5 5.4 2.0
2017-Jan-17 20:20 200 5 5.4 2.0 Drizzle.
2017-Jan-17 19:50 210 6 5.4 2.0 Drizzle.
2017-Jan-17 19:20 200 6 5.4 2.0 Light rain.
2017-Jan-17 18:50 200 6 5.4 1.0 Light rain.
2017-Jan-17 18:20 210 6 4.9 1.0 Light snow.
2017-Jan-17 17:50 210 7 5.4 1.0 Light drizzle.
2017-Jan-17 17:20 210 6 3.8 1.0 Light snow.
2017-Jan-17 16:50 210 6 5.4 1.0 Precipitation.
2017-Jan-17 16:20 200 7 5.4-0.0
2017-Jan-17 15:50 200 9 5.4-0.0
2017-Jan-17 15:20 210 8 5.4-0.0
2017-Jan-17 14:50 200 6 5.4-0.0
2017-Jan-17 14:20 200 6 5.4-0.0
2017-Jan-17 13:50 200 7 5.4-0.0 Precipitation.
2017-Jan-17 13:20 200 9 5.4-0.0